Check out our new BloomSky Weather System.

Active alerts


No alerts


Thunder radar  blitzortung!


Rain radar more information rain snow radar


Visit our other weather sites:

Template documentation
and downloads

And another site



Weather Underground History page Text

Daily Summary for August 15, 2017 Units:  English    Metric   Both
« Previous Day
Next Day »
Daily Weekly Monthly Yearly Custom
  High: Low: Average:
Temperature: 97.0 °F 80.2 °F 87.5 °F
Dew Point: 80.2 °F 73.6 °F 77.2 °F
Humidity: 92 % 48 % 73 %
Wind Speed: 11.0 mph 0.0 mph 3.8 mph
Wind Gust: 18.0 mph - -
Wind:- - South
Pressure: 29.91 in 29.81 in -
Precipitation: 0.00 in    
Historical Graphs
 
 
Tabular Data for August 15, 2017
Time Temperature Dew Point Pressure Wind Wind Speed Wind Gust Humidity Rainfall Rate (Hourly)
00:05 82.4 °F 76.3 °F 29.85 in South 2.0 mph 5.0 mph 82 % 0.00 in
00:10 82.2 °F 76.5 °F 29.84 in SSE 2.0 mph 5.0 mph 83 % 0.00 in
00:14 82.2 °F 76.5 °F 29.85 in SE 1.0 mph 6.0 mph 83 % 0.00 in
00:19 82.0 °F 76.3 °F 29.85 in East 2.0 mph 6.0 mph 83 % 0.00 in
00:24 82.0 °F 76.6 °F 29.85 in SE 1.0 mph 6.0 mph 84 % 0.00 in
00:29 82.0 °F 76.6 °F 29.85 in SSE 3.0 mph 4.0 mph 84 % 0.00 in
00:31 82.0 °F 76.6 °F 29.85 in South 1.0 mph 4.0 mph 84 % 0.00 in
00:36 81.9 °F 76.5 °F 29.85 in South 3.0 mph 4.0 mph 84 % 0.00 in
00:41 81.9 °F 76.8 °F 29.85 in SE 2.0 mph 4.0 mph 85 % 0.00 in
00:46 81.9 °F 76.8 °F 29.85 in SE 2.0 mph 4.0 mph 85 % 0.00 in
00:51 81.9 °F 76.8 °F 29.85 in ESE 4.0 mph 4.0 mph 85 % 0.00 in
00:56 81.9 °F 76.8 °F 29.84 in SSE 4.0 mph 5.0 mph 85 % 0.00 in
01:01 81.9 °F 77.2 °F 29.84 in South 2.0 mph 5.0 mph 86 % 0.00 in
01:06 81.9 °F 77.2 °F 29.84 in South 3.0 mph 7.0 mph 86 % 0.00 in
01:11 81.9 °F 77.2 °F 29.85 in SSE 3.0 mph 7.0 mph 86 % 0.00 in
01:16 81.9 °F 77.2 °F 29.85 in SSW 3.0 mph 7.0 mph 86 % 0.00 in
01:21 81.9 °F 77.2 °F 29.85 in SE 3.0 mph 8.0 mph 86 % 0.00 in
01:26 81.9 °F 77.5 °F 29.85 in South 3.0 mph 8.0 mph 87 % 0.00 in
01:31 81.9 °F 77.5 °F 29.85 in South 4.0 mph 8.0 mph 87 % 0.00 in
01:36 81.9 °F 77.5 °F 29.85 in SSW 3.0 mph 5.0 mph 87 % 0.00 in
01:41 81.9 °F 77.5 °F 29.85 in SSE 2.0 mph 6.0 mph 87 % 0.00 in
01:46 81.9 °F 77.5 °F 29.85 in SE 2.0 mph 6.0 mph 87 % 0.00 in
01:51 81.7 °F 77.4 °F 29.85 in South 2.0 mph 6.0 mph 87 % 0.00 in
01:56 81.7 °F 77.4 °F 29.85 in South 3.0 mph 5.0 mph 87 % 0.00 in
02:01 81.7 °F 77.4 °F 29.85 in SE 3.0 mph 5.0 mph 87 % 0.00 in
02:07 81.7 °F 77.7 °F 29.85 in South 2.0 mph 5.0 mph 88 % 0.00 in
02:12 81.7 °F 77.7 °F 29.85 in SSE 2.0 mph 5.0 mph 88 % 0.00 in
02:17 81.7 °F 77.7 °F 29.85 in SSE 3.0 mph 5.0 mph 88 % 0.00 in
02:22 81.5 °F 77.5 °F 29.85 in SE 1.0 mph 5.0 mph 88 % 0.00 in
02:27 81.5 °F 77.5 °F 29.85 in South 2.0 mph 5.0 mph 88 % 0.00 in
02:32 81.3 °F 77.4 °F 29.85 in SSW 2.0 mph 4.0 mph 88 % 0.00 in
02:37 81.3 °F 77.4 °F 29.85 in SE 2.0 mph 4.0 mph 88 % 0.00 in
02:42 81.3 °F 77.4 °F 29.85 in South 1.0 mph 4.0 mph 88 % 0.00 in
02:47 81.1 °F 77.2 °F 29.84 in SE 2.0 mph 3.0 mph 88 % 0.00 in
02:52 81.1 °F 77.5 °F 29.84 in SSW 2.0 mph 3.0 mph 89 % 0.00 in
02:57 81.0 °F 77.4 °F 29.84 in SE 2.0 mph 3.0 mph 89 % 0.00 in
03:02 81.0 °F 77.4 °F 29.84 in SSE 3.0 mph 3.0 mph 89 % 0.00 in
03:05 81.0 °F 77.4 °F 29.84 in SSE 2.0 mph 4.0 mph 89 % 0.00 in
03:09 81.0 °F 77.4 °F 29.84 in SSE 3.0 mph 4.0 mph 89 % 0.00 in
03:14 81.1 °F 77.5 °F 29.84 in SE 2.0 mph 4.0 mph 89 % 0.00 in
03:19 81.1 °F 77.5 °F 29.84 in South 4.0 mph 6.0 mph 89 % 0.00 in
03:21 81.1 °F 77.5 °F 29.84 in South 3.0 mph 7.0 mph 89 % 0.00 in
03:26 81.1 °F 77.5 °F 29.84 in SE 4.0 mph 7.0 mph 89 % 0.00 in
03:31 81.1 °F 77.5 °F 29.84 in SSE 3.0 mph 7.0 mph 89 % 0.00 in
03:36 81.1 °F 77.5 °F 29.84 in South 1.0 mph 7.0 mph 89 % 0.00 in
03:41 81.1 °F 77.5 °F 29.84 in South 2.0 mph 5.0 mph 89 % 0.00 in
03:46 81.1 °F 77.5 °F 29.83 in South 3.0 mph 5.0 mph 89 % 0.00 in
03:51 81.0 °F 77.4 °F 29.84 in South 2.0 mph 6.0 mph 89 % 0.00 in
03:58 81.0 °F 77.4 °F 29.84 in SSE 4.0 mph 6.0 mph 89 % 0.00 in
04:03 81.0 °F 77.4 °F 29.84 in SE 2.0 mph 6.0 mph 89 % 0.00 in
04:08 81.0 °F 77.4 °F 29.84 in SSE 3.0 mph 5.0 mph 89 % 0.00 in
04:13 80.8 °F 77.2 °F 29.84 in SSE 1.0 mph 5.0 mph 89 % 0.00 in
04:18 80.8 °F 77.5 °F 29.84 in SSE 3.0 mph 6.0 mph 90 % 0.00 in
04:23 80.8 °F 77.5 °F 29.84 in South 5.0 mph 6.0 mph 90 % 0.00 in
04:28 80.8 °F 77.5 °F 29.84 in SSE 2.0 mph 6.0 mph 90 % 0.00 in
04:33 80.8 °F 77.5 °F 29.84 in South 2.0 mph 6.0 mph 90 % 0.00 in
04:38 80.6 °F 77.4 °F 29.84 in SSW 3.0 mph 6.0 mph 90 % 0.00 in
04:43 80.4 °F 77.2 °F 29.84 in SSW 2.0 mph 6.0 mph 90 % 0.00 in
04:48 80.4 °F 77.2 °F 29.84 in South 2.0 mph 4.0 mph 90 % 0.00 in
04:53 80.2 °F 77.0 °F 29.84 in SSE 3.0 mph 4.0 mph 90 % 0.00 in
04:58 80.4 °F 77.2 °F 29.84 in SE 3.0 mph 5.0 mph 90 % 0.00 in
05:03 80.4 °F 77.5 °F 29.84 in SSE 2.0 mph 5.0 mph 91 % 0.00 in
05:08 80.4 °F 77.2 °F 29.84 in SSW 2.0 mph 5.0 mph 90 % 0.00 in
05:13 80.4 °F 77.5 °F 29.84 in SSE 2.0 mph 5.0 mph 91 % 0.00 in
05:18 80.4 °F 77.5 °F 29.84 in SSE 3.0 mph 5.0 mph 91 % 0.00 in
05:23 80.4 °F 77.5 °F 29.84 in SE 2.0 mph 5.0 mph 91 % 0.00 in
05:28 80.4 °F 77.5 °F 29.84 in SSE 2.0 mph 5.0 mph 91 % 0.00 in
05:33 80.4 °F 77.5 °F 29.84 in SE 2.0 mph 5.0 mph 91 % 0.00 in
05:38 80.4 °F 77.5 °F 29.84 in South 2.0 mph 4.0 mph 91 % 0.00 in
05:43 80.4 °F 77.5 °F 29.84 in SSE 1.0 mph 4.0 mph 91 % 0.00 in
05:48 80.4 °F 77.5 °F 29.84 in South 4.0 mph 5.0 mph 91 % 0.00 in
05:53 80.4 °F 77.5 °F 29.84 in SSE 1.0 mph 5.0 mph 91 % 0.00 in
05:58 80.4 °F 77.5 °F 29.84 in SE 2.0 mph 6.0 mph 91 % 0.00 in
06:03 80.4 °F 77.5 °F 29.84 in SSE 3.0 mph 6.0 mph 91 % 0.00 in
06:08 80.4 °F 77.5 °F 29.84 in South 3.0 mph 6.0 mph 91 % 0.00 in
06:13 80.4 °F 77.5 °F 29.84 in South 3.0 mph 6.0 mph 91 % 0.00 in
06:18 80.4 °F 77.5 °F 29.84 in SSE 2.0 mph 6.0 mph 91 % 0.00 in
06:23 80.4 °F 77.5 °F 29.84 in South 3.0 mph 5.0 mph 91 % 0.00 in
06:28 80.4 °F 77.5 °F 29.84 in SE 2.0 mph 5.0 mph 91 % 0.00 in
06:30 80.4 °F 77.5 °F 29.84 in SSE 2.0 mph 5.0 mph 91 % 0.00 in
06:35 80.4 °F 77.5 °F 29.85 in SSW 2.0 mph 4.0 mph 91 % 0.00 in
06:40 80.4 °F 77.5 °F 29.85 in Calm   4.0 mph 91 % 0.00 in
06:45 80.4 °F 77.5 °F 29.85 in SSW 1.0 mph 3.0 mph 91 % 0.00 in
06:50 80.4 °F 77.5 °F 29.85 in South 3.0 mph 3.0 mph 91 % 0.00 in
06:55 80.2 °F 77.4 °F 29.85 in SSE 1.0 mph 3.0 mph 91 % 0.00 in
07:00 80.2 °F 77.7 °F 29.85 in SSE 1.0 mph 3.0 mph 92 % 0.00 in
07:05 80.2 °F 77.7 °F 29.86 in ESE 3.0 mph 4.0 mph 92 % 0.00 in
07:10 80.4 °F 77.9 °F 29.86 in Calm   4.0 mph 92 % 0.00 in
07:15 80.4 °F 77.9 °F 29.86 in SSW 1.0 mph 4.0 mph 92 % 0.00 in
07:20 80.4 °F 77.9 °F 29.86 in SSE 2.0 mph 3.0 mph 92 % 0.00 in
07:25 80.6 °F 78.1 °F 29.86 in SE 1.0 mph 3.0 mph 92 % 0.00 in
07:30 80.8 °F 78.3 °F 29.86 in Calm   3.0 mph 92 % 0.00 in
07:35 81.0 °F 78.4 °F 29.87 in SE 1.0 mph 3.0 mph 92 % 0.00 in
07:40 81.3 °F 78.8 °F 29.87 in South 2.0 mph 2.0 mph 92 % 0.00 in
07:45 81.7 °F 78.8 °F 29.87 in SSE 2.0 mph 3.0 mph 91 % 0.00 in
07:50 82.0 °F 79.2 °F 29.87 in SE 1.0 mph 3.0 mph 91 % 0.00 in
07:55 82.6 °F 79.3 °F 29.88 in SSW 1.0 mph 4.0 mph 90 % 0.00 in
08:00 83.1 °F 79.5 °F 29.88 in SSW 1.0 mph 4.0 mph 89 % 0.00 in
08:05 83.5 °F 79.5 °F 29.88 in South 2.0 mph 5.0 mph 88 % 0.00 in
08:10 83.7 °F 79.7 °F 29.88 in Calm   5.0 mph 88 % 0.00 in
08:15 84.0 °F 79.7 °F 29.88 in SSW 3.0 mph 5.0 mph 87 % 0.00 in
08:20 84.2 °F 79.5 °F 29.88 in SSW 2.0 mph 5.0 mph 86 % 0.00 in
08:25 84.2 °F 79.5 °F 29.89 in SSE 1.0 mph 5.0 mph 86 % 0.00 in
08:30 84.2 °F 79.5 °F 29.89 in SSW 1.0 mph 6.0 mph 86 % 0.00 in
08:35 84.6 °F 79.9 °F 29.89 in SSW 2.0 mph 6.0 mph 86 % 0.00 in
08:40 84.9 °F 80.2 °F 29.88 in South 2.0 mph 6.0 mph 86 % 0.00 in
08:45 85.3 °F 79.5 °F 29.89 in SSW 3.0 mph 9.0 mph 83 % 0.00 in
08:50 85.3 °F 79.9 °F 29.89 in South 1.0 mph 9.0 mph 84 % 0.00 in
08:56 85.5 °F 80.1 °F 29.89 in SSW 3.0 mph 9.0 mph 84 % 0.00 in
09:01 85.6 °F 79.5 °F 29.89 in SSE 1.0 mph 8.0 mph 82 % 0.00 in
09:06 85.8 °F 79.3 °F 29.89 in SE 6.0 mph 8.0 mph 81 % 0.00 in
09:11 86.0 °F 79.5 °F 29.89 in SSW 7.0 mph 8.0 mph 81 % 0.00 in
09:16 86.0 °F 79.2 °F 29.89 in South 2.0 mph 9.0 mph 80 % 0.00 in
09:21 86.4 °F 79.0 °F 29.89 in SW 4.0 mph 11.0 mph 79 % 0.00 in
09:26 86.7 °F 79.0 °F 29.89 in South 6.0 mph 11.0 mph 78 % 0.00 in
09:31 87.3 °F 79.2 °F 29.89 in SSW 5.0 mph 11.0 mph 77 % 0.00 in
09:36 87.4 °F 79.7 °F 29.89 in WSW 7.0 mph 9.0 mph 78 % 0.00 in
09:41 87.6 °F 79.2 °F 29.89 in SSE 4.0 mph 9.0 mph 76 % 0.00 in
09:46 87.6 °F 79.5 °F 29.90 in SW 3.0 mph 8.0 mph 77 % 0.00 in
09:51 87.6 °F 79.2 °F 29.90 in SW 6.0 mph 8.0 mph 76 % 0.00 in
09:56 87.6 °F 78.6 °F 29.89 in SW 4.0 mph 11.0 mph 75 % 0.00 in
10:01 88.0 °F 78.3 °F 29.90 in SSE 5.0 mph 13.0 mph 73 % 0.00 in
10:06 88.3 °F 79.0 °F 29.90 in SSW 4.0 mph 13.0 mph 74 % 0.00 in
10:09 88.9 °F 79.2 °F 29.90 in NW 3.0 mph 13.0 mph 73 % 0.00 in
10:14 89.4 °F 79.2 °F 29.90 in South 5.0 mph 13.0 mph 72 % 0.00 in
10:19 89.2 °F 78.1 °F 29.90 in South 4.0 mph 11.0 mph 70 % 0.00 in
10:24 89.2 °F 79.0 °F 29.91 in South 5.0 mph 12.0 mph 72 % 0.00 in
10:29 89.4 °F 79.2 °F 29.91 in East 5.0 mph 12.0 mph 72 % 0.00 in
10:34 89.6 °F 79.0 °F 29.91 in SW 1.0 mph 12.0 mph 71 % 0.00 in
10:39 90.0 °F 79.7 °F 29.91 in East 2.0 mph 9.0 mph 72 % 0.00 in
10:44 90.0 °F 78.8 °F 29.91 in WNW 2.0 mph 9.0 mph 70 % 0.00 in
10:49 90.0 °F 78.8 °F 29.91 in South 5.0 mph 7.0 mph 70 % 0.00 in
10:54 89.4 °F 78.3 °F 29.91 in South 3.0 mph 9.0 mph 70 % 0.00 in
10:59 90.0 °F 78.8 °F 29.91 in SSW 8.0 mph 9.0 mph 70 % 0.00 in
11:04 90.3 °F 78.8 °F 29.91 in SSW 2.0 mph 9.0 mph 69 % 0.00 in
11:09 90.9 °F 78.8 °F 29.91 in SW 3.0 mph 10.0 mph 68 % 0.00 in
11:14 90.7 °F 77.4 °F 29.91 in SSW 6.0 mph 10.0 mph 65 % 0.00 in
11:19 90.3 °F 77.0 °F 29.91 in West 6.0 mph 10.0 mph 65 % 0.00 in
11:24 90.5 °F 78.1 °F 29.91 in SSE 2.0 mph 10.0 mph 67 % 0.00 in
11:29 91.4 °F 78.8 °F 29.91 in WSW 4.0 mph 10.0 mph 67 % 0.00 in
11:34 91.8 °F 77.9 °F 29.91 in SW 4.0 mph 10.0 mph 64 % 0.00 in
11:35 91.8 °F 77.4 °F 29.91 in WSW 3.0 mph 10.0 mph 63 % 0.00 in
11:40 91.9 °F 77.0 °F 29.91 in South 1.0 mph 9.0 mph 62 % 0.00 in
11:45 92.3 °F 77.4 °F 29.90 in WSW 2.0 mph 8.0 mph 62 % 0.00 in
11:50 92.3 °F 76.5 °F 29.91 in South 7.0 mph 13.0 mph 60 % 0.00 in
11:55 91.8 °F 76.5 °F 29.90 in SSE 4.0 mph 13.0 mph 61 % 0.00 in
12:00 91.9 °F 77.0 °F 29.90 in SSW 4.0 mph 13.0 mph 62 % 0.00 in
12:05 92.7 °F 78.3 °F 29.90 in SSE 4.0 mph 11.0 mph 63 % 0.00 in
12:10 93.0 °F 78.6 °F 29.89 in South 6.0 mph 8.0 mph 63 % 0.00 in
12:15 93.4 °F 76.8 °F 29.89 in SW 8.0 mph 9.0 mph 59 % 0.00 in
12:20 93.0 °F 76.6 °F 29.89 in SSE 4.0 mph 9.0 mph 59 % 0.00 in
12:25 92.7 °F 75.7 °F 29.89 in SSE 5.0 mph 15.0 mph 58 % 0.00 in
12:30 92.7 °F 76.3 °F 29.88 in South 1.0 mph 15.0 mph 59 % 0.00 in
12:35 92.8 °F 74.8 °F 29.88 in SE 6.0 mph 15.0 mph 56 % 0.00 in
12:36 92.8 °F 75.4 °F 29.88 in South 9.0 mph 15.0 mph 57 % 0.00 in
12:41 92.7 °F 76.3 °F 29.88 in SSE 4.0 mph 13.0 mph 59 % 0.00 in
12:46 93.0 °F 75.6 °F 29.88 in SW 6.0 mph 13.0 mph 57 % 0.00 in
12:51 93.4 °F 77.4 °F 29.87 in WSW 4.0 mph 12.0 mph 60 % 0.00 in
12:56 93.6 °F 76.1 °F 29.87 in SSE 9.0 mph 11.0 mph 57 % 0.00 in
13:01 93.6 °F 75.0 °F 29.87 in SE 9.0 mph 12.0 mph 55 % 0.00 in
13:06 93.7 °F 75.7 °F 29.87 in SSW 7.0 mph 14.0 mph 56 % 0.00 in
13:11 93.7 °F 76.3 °F 29.87 in South 5.0 mph 14.0 mph 57 % 0.00 in
13:16 93.7 °F 75.2 °F 29.87 in SSE 5.0 mph 14.0 mph 55 % 0.00 in
13:21 93.6 °F 74.5 °F 29.86 in South 7.0 mph 15.0 mph 54 % 0.00 in
13:26 93.4 °F 75.9 °F 29.87 in South 4.0 mph 15.0 mph 57 % 0.00 in
13:31 93.9 °F 76.8 °F 29.87 in SSE 3.0 mph 15.0 mph 58 % 0.00 in
13:36 94.5 °F 76.3 °F 29.87 in SE 5.0 mph 12.0 mph 56 % 0.00 in
13:41 94.6 °F 75.9 °F 29.87 in SSE 2.0 mph 12.0 mph 55 % 0.00 in
13:46 95.0 °F 75.7 °F 29.86 in West 3.0 mph 12.0 mph 54 % 0.00 in
13:51 95.5 °F 77.4 °F 29.87 in SSW 2.0 mph 12.0 mph 56 % 0.00 in
13:56 95.7 °F 76.5 °F 29.87 in South 9.0 mph 11.0 mph 54 % 0.00 in
14:02 95.5 °F 75.7 °F 29.86 in SE 3.0 mph 11.0 mph 53 % 0.00 in
14:07 95.5 °F 76.8 °F 29.86 in South 7.0 mph 11.0 mph 55 % 0.00 in
14:12 95.7 °F 76.5 °F 29.86 in SSE 4.0 mph 10.0 mph 54 % 0.00 in
14:17 95.5 °F 75.7 °F 29.85 in SSW 3.0 mph 10.0 mph 53 % 0.00 in
14:22 95.4 °F 75.6 °F 29.85 in WNW 4.0 mph 10.0 mph 53 % 0.00 in
14:27 95.7 °F 76.5 °F 29.85 in SSE 5.0 mph 10.0 mph 54 % 0.00 in
14:32 95.4 °F 75.6 °F 29.85 in South 1.0 mph 10.0 mph 53 % 0.00 in
14:37 94.8 °F 75.0 °F 29.84 in SW 8.0 mph 9.0 mph 53 % 0.00 in
14:42 94.8 °F 75.0 °F 29.84 in South 4.0 mph 10.0 mph 53 % 0.00 in
14:47 95.4 °F 73.8 °F 29.84 in SSW 1.0 mph 10.0 mph 50 % 0.00 in
14:52 95.9 °F 75.9 °F 29.84 in SSW 3.0 mph 10.0 mph 53 % 0.00 in
14:57 96.4 °F 75.4 °F 29.84 in SSE 5.0 mph 10.0 mph 51 % 0.00 in
15:02 96.8 °F 76.8 °F 29.83 in SSE 4.0 mph 9.0 mph 53 % 0.00 in
15:07 96.6 °F 74.8 °F 29.83 in East 6.0 mph 9.0 mph 50 % 0.00 in
15:12 96.3 °F 75.7 °F 29.83 in South 7.0 mph 9.0 mph 52 % 0.00 in
15:17 95.4 °F 74.3 °F 29.83 in SSE 7.0 mph 12.0 mph 51 % 0.00 in
15:22 94.6 °F 75.4 °F 29.83 in SSW 1.0 mph 12.0 mph 54 % 0.00 in
15:27 95.4 °F 77.2 °F 29.83 in SSE 2.0 mph 12.0 mph 56 % 0.00 in
15:32 95.7 °F 74.7 °F 29.82 in South 5.0 mph 11.0 mph 51 % 0.00 in
15:37 95.2 °F 75.4 °F 29.82 in SSW 4.0 mph 11.0 mph 53 % 0.00 in
15:42 95.7 °F 77.0 °F 29.82 in SSE 4.0 mph 10.0 mph 55 % 0.00 in
15:47 96.3 °F 74.7 °F 29.82 in SE 3.0 mph 10.0 mph 50 % 0.00 in
15:52 96.6 °F 74.8 °F 29.82 in SSW 6.0 mph 10.0 mph 50 % 0.00 in
15:57 96.4 °F 74.1 °F 29.81 in South 4.0 mph 10.0 mph 49 % 0.00 in
16:02 96.4 °F 74.1 °F 29.81 in South 5.0 mph 10.0 mph 49 % 0.00 in
16:07 96.4 °F 73.6 °F 29.81 in East 8.0 mph 13.0 mph 48 % 0.00 in
16:12 97.0 °F 75.2 °F 29.81 in SE 4.0 mph 13.0 mph 50 % 0.00 in
16:17 96.4 °F 74.1 °F 29.81 in SSE 5.0 mph 13.0 mph 49 % 0.00 in
16:22 96.1 °F 75.0 °F 29.81 in SSE 3.0 mph 12.0 mph 51 % 0.00 in
16:27 96.4 °F 75.4 °F 29.81 in SE 6.0 mph 12.0 mph 51 % 0.00 in
16:32 96.4 °F 75.4 °F 29.81 in SSW 5.0 mph 13.0 mph 51 % 0.00 in
16:37 96.1 °F 74.5 °F 29.81 in SSE 3.0 mph 13.0 mph 50 % 0.00 in
16:42 95.5 °F 74.5 °F 29.81 in South 4.0 mph 13.0 mph 51 % 0.00 in
16:47 95.9 °F 74.3 °F 29.81 in SSE 3.0 mph 12.0 mph 50 % 0.00 in
16:52 96.1 °F 74.5 °F 29.81 in SSE 7.0 mph 12.0 mph 50 % 0.00 in
16:57 96.3 °F 76.3 °F 29.81 in SE 2.0 mph 10.0 mph 53 % 0.00 in
17:02 96.4 °F 75.4 °F 29.81 in SSW 7.0 mph 10.0 mph 51 % 0.00 in
17:07 95.7 °F 74.7 °F 29.81 in SSW 3.0 mph 12.0 mph 51 % 0.00 in
17:12 95.7 °F 75.9 °F 29.81 in South 7.0 mph 12.0 mph 53 % 0.00 in
17:17 95.7 °F 77.0 °F 29.81 in SSE 3.0 mph 12.0 mph 55 % 0.00 in
17:22 95.2 °F 76.5 °F 29.81 in ESE 11.0 mph 11.0 mph 55 % 0.00 in
17:27 94.5 °F 76.3 °F 29.81 in SSE 7.0 mph 12.0 mph 56 % 0.00 in
17:32 94.3 °F 76.1 °F 29.81 in SSE 9.0 mph 12.0 mph 56 % 0.00 in
17:37 93.9 °F 76.3 °F 29.81 in SE 8.0 mph 12.0 mph 57 % 0.00 in
17:42 93.7 °F 76.3 °F 29.81 in ESE 6.0 mph 11.0 mph 57 % 0.00 in
17:47 93.7 °F 76.3 °F 29.81 in South 6.0 mph 10.0 mph 57 % 0.00 in
17:52 93.9 °F 76.3 °F 29.81 in SSE 5.0 mph 10.0 mph 57 % 0.00 in
17:57 93.9 °F 76.3 °F 29.81 in SE 6.0 mph 11.0 mph 57 % 0.00 in
18:02 93.9 °F 76.3 °F 29.81 in South 8.0 mph 11.0 mph 57 % 0.00 in
18:08 93.9 °F 76.3 °F 29.81 in South 5.0 mph 15.0 mph 57 % 0.00 in
18:13 93.9 °F 76.3 °F 29.81 in SSE 6.0 mph 15.0 mph 57 % 0.00 in
18:18 94.3 °F 76.1 °F 29.81 in SSE 4.0 mph 15.0 mph 56 % 0.00 in
18:23 94.3 °F 76.6 °F 29.81 in SE 8.0 mph 14.0 mph 57 % 0.00 in
18:28 94.1 °F 75.9 °F 29.81 in South 9.0 mph 14.0 mph 56 % 0.00 in
18:33 93.9 °F 75.7 °F 29.81 in SSE 7.0 mph 12.0 mph 56 % 0.00 in
18:38 93.7 °F 75.7 °F 29.81 in SSE 7.0 mph 12.0 mph 56 % 0.00 in
18:43 93.7 °F 75.2 °F 29.81 in SE 7.0 mph 12.0 mph 55 % 0.00 in
18:48 93.7 °F 75.2 °F 29.81 in SSW 5.0 mph 11.0 mph 55 % 0.00 in
18:53 93.6 °F 75.6 °F 29.81 in South 10.0 mph 11.0 mph 56 % 0.00 in
18:58 93.6 °F 75.0 °F 29.81 in SE 5.0 mph 11.0 mph 55 % 0.00 in
19:03 93.4 °F 75.4 °F 29.81 in SE 7.0 mph 11.0 mph 56 % 0.00 in
19:08 93.4 °F 75.4 °F 29.81 in SSE 5.0 mph 11.0 mph 56 % 0.00 in
19:13 93.0 °F 77.0 °F 29.81 in ESE 9.0 mph 12.0 mph 60 % 0.00 in
19:18 92.5 °F 78.1 °F 29.81 in SE 11.0 mph 12.0 mph 63 % 0.00 in
19:23 91.6 °F 78.1 °F 29.81 in SSE 10.0 mph 15.0 mph 65 % 0.00 in
19:28 91.2 °F 78.3 °F 29.81 in SE 5.0 mph 18.0 mph 66 % 0.00 in
19:33 90.9 °F 77.9 °F 29.81 in SSE 8.0 mph 18.0 mph 66 % 0.00 in
19:38 90.5 °F 77.5 °F 29.81 in South 4.0 mph 18.0 mph 66 % 0.00 in
19:43 90.1 °F 77.7 °F 29.82 in SE 4.0 mph 17.0 mph 67 % 0.00 in
19:48 89.8 °F 76.8 °F 29.82 in SSE 5.0 mph 18.0 mph 66 % 0.00 in
19:53 89.8 °F 76.5 °F 29.82 in South 7.0 mph 18.0 mph 65 % 0.00 in
19:58 89.4 °F 76.6 °F 29.82 in SSE 6.0 mph 18.0 mph 66 % 0.00 in
20:03 89.2 °F 76.8 °F 29.83 in SSW 7.0 mph 14.0 mph 67 % 0.00 in
20:08 89.1 °F 77.2 °F 29.83 in South 6.0 mph 14.0 mph 68 % 0.00 in
20:13 88.9 °F 77.4 °F 29.83 in SE 5.0 mph 11.0 mph 69 % 0.00 in
20:18 88.5 °F 77.0 °F 29.84 in South 5.0 mph 11.0 mph 69 % 0.00 in
20:23 88.5 °F 77.5 °F 29.84 in SSE 3.0 mph 9.0 mph 70 % 0.00 in
20:28 88.3 °F 77.7 °F 29.84 in South 7.0 mph 9.0 mph 71 % 0.00 in
20:33 88.2 °F 77.5 °F 29.84 in SE 4.0 mph 9.0 mph 71 % 0.00 in
20:38 88.0 °F 77.4 °F 29.84 in SSE 4.0 mph 9.0 mph 71 % 0.00 in
20:43 87.8 °F 77.2 °F 29.84 in SSE 3.0 mph 8.0 mph 71 % 0.00 in
20:48 87.6 °F 77.5 °F 29.84 in South 3.0 mph 10.0 mph 72 % 0.00 in
20:53 87.6 °F 77.5 °F 29.85 in South 4.0 mph 10.0 mph 72 % 0.00 in
20:58 87.4 °F 77.4 °F 29.85 in SSE 3.0 mph 10.0 mph 72 % 0.00 in
21:03 87.4 °F 77.7 °F 29.85 in South 3.0 mph 9.0 mph 73 % 0.00 in
21:08 87.3 °F 77.5 °F 29.86 in SSW 5.0 mph 9.0 mph 73 % 0.00 in
21:13 87.3 °F 77.5 °F 29.86 in South 5.0 mph 10.0 mph 73 % 0.00 in
21:18 87.3 °F 77.9 °F 29.86 in SSE 2.0 mph 10.0 mph 74 % 0.00 in
21:23 87.1 °F 77.7 °F 29.86 in South 6.0 mph 10.0 mph 74 % 0.00 in
21:28 86.9 °F 77.5 °F 29.86 in SE 6.0 mph 9.0 mph 74 % 0.00 in
21:33 86.9 °F 77.5 °F 29.87 in SE 6.0 mph 9.0 mph 74 % 0.00 in
21:38 86.7 °F 77.4 °F 29.87 in SE 4.0 mph 9.0 mph 74 % 0.00 in
21:43 86.5 °F 77.2 °F 29.87 in SSW 2.0 mph 9.0 mph 74 % 0.00 in
21:48 86.5 °F 77.7 °F 29.87 in SSE 4.0 mph 9.0 mph 75 % 0.00 in
21:53 86.4 °F 77.5 °F 29.87 in SSE 2.0 mph 7.0 mph 75 % 0.00 in
21:58 86.2 °F 77.7 °F 29.87 in SSE 4.0 mph 6.0 mph 76 % 0.00 in
22:03 86.2 °F 77.7 °F 29.88 in SSE 8.0 mph 9.0 mph 76 % 0.00 in
22:08 86.2 °F 77.7 °F 29.88 in SSW 4.0 mph 9.0 mph 76 % 0.00 in
22:13 86.2 °F 77.7 °F 29.88 in SW 5.0 mph 11.0 mph 76 % 0.00 in
22:18 86.0 °F 77.5 °F 29.88 in South 6.0 mph 11.0 mph 76 % 0.00 in
22:21 86.0 °F 77.9 °F 29.89 in South 4.0 mph 11.0 mph 77 % 0.00 in
22:22 85.8 °F 77.7 °F 29.88 in SSE 2.0 mph 11.0 mph 77 % 0.00 in
22:25 85.8 °F 77.7 °F 29.89 in SSE 5.0 mph 7.0 mph 77 % 0.00 in
22:26 85.8 °F 77.7 °F 29.89 in SE 4.0 mph 7.0 mph 77 % 0.00 in
22:27 85.8 °F 77.7 °F 29.89 in South 2.0 mph 7.0 mph 77 % 0.00 in
22:32 85.6 °F 77.9 °F 29.89 in SSE 2.0 mph 9.0 mph 78 % 0.00 in
22:37 85.6 °F 77.9 °F 29.89 in South 4.0 mph 9.0 mph 78 % 0.00 in
22:42 85.5 °F 77.7 °F 29.89 in SSE 2.0 mph 9.0 mph 78 % 0.00 in
22:47 85.3 °F 78.1 °F 29.89 in SSE 3.0 mph 7.0 mph 79 % 0.00 in
22:52 85.3 °F 78.1 °F 29.90 in SSE 1.0 mph 6.0 mph 79 % 0.00 in
22:57 84.9 °F 77.7 °F 29.90 in SSE 6.0 mph 6.0 mph 79 % 0.00 in
23:02 84.9 °F 78.1 °F 29.90 in SE 3.0 mph 6.0 mph 80 % 0.00 in
23:07 84.7 °F 77.9 °F 29.90 in SSE 3.0 mph 6.0 mph 80 % 0.00 in
23:12 84.7 °F 78.3 °F 29.90 in SSW 6.0 mph 6.0 mph 81 % 0.00 in
23:17 84.6 °F 78.1 °F 29.90 in SSW 4.0 mph 6.0 mph 81 % 0.00 in
23:22 84.4 °F 77.9 °F 29.90 in SSE 3.0 mph 6.0 mph 81 % 0.00 in
23:27 84.6 °F 78.4 °F 29.90 in SSE 3.0 mph 8.0 mph 82 % 0.00 in
23:32 84.6 °F 78.4 °F 29.91 in SSE 3.0 mph 8.0 mph 82 % 0.00 in
23:37 84.4 °F 78.3 °F 29.91 in SSE 4.0 mph 8.0 mph 82 % 0.00 in
23:42 84.2 °F 78.1 °F 29.91 in SSW 4.0 mph 8.0 mph 82 % 0.00 in
23:47 84.0 °F 78.3 °F 29.91 in SE 1.0 mph 6.0 mph 83 % 0.00 in
23:52 84.0 °F 78.3 °F 29.91 in ESE 4.0 mph 5.0 mph 83 % 0.00 in
23:57 84.0 °F 78.3 °F 29.91 in SSE 1.0 mph 5.0 mph 83 % 0.00 in
Spring, Texas: Villages of Bridgestone
Compliments of Weather Underground - 2.75 mb

Script developed by  Jim McMurry - jmcmurry@mwt.net Adapted for the template by  Wim van der Kuil - Leuven-Template.eu

You find our weather info also at:

UK Metoffice

WeatherCloud

Weather Underground

Mid-South Weather Network

AWEKAS

Citizen Weather Observer Program (CWOP)

HAMweather, WeatherForYou, PWS Weather

Equipment we use:

Weather-station
Davis Vantage Vue

Weather-program
Meteohub

Weather-server
Debian 7.9 x86 (Guest)

Provider
DreamHost

Davis Vantage Vue

Meteohub

Debian 7.9 x86 (Guest)

DreamHost